Regional Weather Roundup
Issued by NWS

Home | Current Version | Previous Version | Text Only | Print | Product List | Glossary Off
Versions: 1 2 3 4 5 6 7 8 9 10 11 12 13 14 15 16 17 18 19 20 21 22 23 24 25 26 27 28 29 30 31 32 33 34 35 36 37 38 39 40 41 42 43 44 45 46 47 48 49 50

000
ASUS43 KOAX 301010
RWRNE

WEATHER ROUNDUP FOR NEBRASKA
NATIONAL WEATHER SERVICE OMAHA NE
500 AM CDT WED JUL 30 2014

NOTES: SATELLITE DATA IS BEING USED TO AUGMENT CLOUD COVER ABOVE
       12000 FEET.
       "FAIR" INDICATES FEW OR NO CLOUDS BELOW 12,000 FEET WITH NO
       SIGNIFICANT WEATHER AND/OR OBSTRUCTIONS TO VISIBILITY.

  * THESE STATIONS DO NOT REPORT WEATHER SUCH AS RAIN...SNOW OR FOG.

NEZ001>004-019>022-054>056-301100-
NEBRASKA PANHANDLE

CITY           SKY/WX    TMP DP  RH WIND       PRES   REMARKS
SCOTTSBLUFF    CLOUDY    63  58  83 CALM      30.25R
ALLIANCE       CLOUDY    62  53  72 CALM      30.24S
CHADRON        MOCLDY    53  52  96 CALM      30.23S
KIMBALL        DRIZZLE   60  59  97 NE5       30.26S
SIDNEY         CLOUDY    62  60  93 N5        30.25S
$$

NEZ057>060-069>072-079>082-301100-
SOUTHWEST NEBRASKA

CITY           SKY/WX    TMP DP  RH WIND       PRES   REMARKS
NORTH PLATTE   CLOUDY    64  60  87 CALM      30.19R
IMPERIAL       CLOUDY    62  60  93 NE5       30.20R
LEXINGTON      CLOUDY    64  61  88 CALM      30.17S
MCCOOK         CLOUDY    63  61  93 E5        30.17S
OGALLALA       CLOUDY    63  60  92 CALM      30.20F
$$

NEZ005>010-023>029-035>040-094-301100-
NORTH CENTRAL NEBRASKA

CITY           SKY/WX    TMP DP  RH WIND       PRES   REMARKS
VALENTINE      CLEAR     51  48  89 CALM      30.19S
AINSWORTH      CLEAR     52  49  92 W5        30.18S
BROKEN BOW     PTCLDY    56  54  93 N3        30.18R
O`NEILL        CLEAR     55  53  90 CALM      30.17R
ORD            PTCLDY    54  53  97 SW5       30.16R
THEDFORD       PTCLDY    54  53  97 W3        30.21R
$$

NEZ041-046>049-061>064-073>077-083>087-301100-
SOUTH CENTRAL NEBRASKA

CITY           SKY/WX    TMP DP  RH WIND       PRES   REMARKS
GRAND ISLAND   MOCLDY    62  57  83 CALM      30.16S
AURORA         CLOUDY    60  59  96 CALM      30.16R
HASTINGS       CLOUDY    64  53  67 SE5       30.15S
HEBRON         CLOUDY    64  57  79 CALM      30.14S
HOLDREGE       CLOUDY    63  57  81 CALM      30.16S
KEARNEY *      MOCLDY    63  57  82 CALM      30.17R
YORK           MOCLDY    59  59 100 N3        30.15S
$$

NEZ011>018-030>034-042>045-301100-
NORTHEAST NEBRASKA

CITY           SKY/WX    TMP DP  RH WIND       PRES   REMARKS
NORFOLK        PTCLDY    54  52  93 SW3       30.15R
ALBION         CLEAR     52  51  93 CALM      30.17R
BLAIR          CLEAR     59  52  76 NW3       30.13R
COLUMBUS *     CLEAR     54  48  82 NW3       30.15S
FREMONT        CLEAR     56  54  93 CALM      30.14R
TEKAMAH        CLEAR     51  48  89 CALM      30.13R
WAYNE          CLEAR     50  49  95 CALM      30.15R
$$

NEZ050>053-065>068-078-088>093-301100-
SOUTHEAST NEBRASKA

CITY           SKY/WX    TMP DP  RH WIND       PRES   REMARKS
LINCOLN        PTCLDY    58  54  86 N3        30.14R
OMAHA EPPLEY   PTCLDY    56  54  93 N3        30.13R
BEATRICE       MOCLDY    60  58  91 CALM      30.14R
FALLS CITY     MOCLDY    62  57  83 CALM      30.12R
NEBRASKA CITY  PTCLDY    60  56  86 N3        30.13R
PLATTSMOUTH    CLEAR     57  54  89 CALM      30.13S
$$

NEZ044-045-051>053-067-301100-
OMAHA AREA

CITY           SKY/WX    TMP DP  RH WIND       PRES   REMARKS
OMAHA EPPLEY   PTCLDY    56  54  93 N3        30.13R
BLAIR          CLEAR     59  52  76 NW3       30.13R
FREMONT        CLEAR     56  54  93 CALM      30.14R
MILLARD        PTCLDY    58  56  94 CALM      30.12S
OFFUTT AFB     CLEAR     52  52 100 CALM      30.12S
PLATTSMOUTH    CLEAR     57  54  89 CALM      30.13S
WAHOO          FAIR      56  54  91 NW3       30.13S
$$


USA.gov is the U.S. government's official web portal to all federal, state and local government web resources and services.